Regional Weather Roundup
Issued by NWS Cleveland, OH

Home | Current Version | Previous Version | Text Only | Print | Product List | Glossary On
Versions: 1 2 3 4 5 6 7 8 9 10 11 12 13 14 15 16 17 18 19 20 21 22 23 24 25 26 27 28 29 30 31 32 33 34 35 36 37 38 39 40 41 42 43 44 45 46 47 48 49 50
000
ASUS41 KCLE 300712
RWRCLE
OHIO REGIONAL WEATHER ROUNDUP
NATIONAL WEATHER SERVICE WILMINGTON, OH
300 AM EDT SAT APR 30 2016

NOTE: "FAIR" INDICATES FEW OR NO CLOUDS BELOW 12,000 FEET WITH NO
SIGNIFICANT WEATHER AND/OR OBSTRUCTIONS TO VISIBILITY.

OHZ001>008-015>018-024>027-034-035-043-044-300800-
   NORTHWEST OHIO

CITY           SKY/WX    TMP DP  RH WIND       PRES   REMARKS
DEFIANCE       FAIR      45  39  79 E6        30.13S
FINDLAY        FAIR      42  36  79 E6        30.12F
TOLEDO EXPRESS MOCLDY    42  35  76 E3        30.14F
TOLEDO EXEC    FAIR      42  37  82 CALM      30.16S
LIMA           FAIR      43  40  89 E7        30.10F
$$

OHZ009>014-019>023-028>033-038-089-300800-
   NORTHEAST OHIO

CITY           SKY/WX    TMP DP  RH WIND       PRES   REMARKS
CLE-HOPKINS    FAIR      42  37  82 NE5       30.16S
CLE-LAKEFRONT  FAIR      43  39  86 E5        30.13F
CUY CO. ARPT   NOT AVBL
LORAIN-ELYRIA  FAIR      38  35  89 CALM      30.14R
ASHTABULA      FAIR      33  31  92 NE3       30.14F
AKRON-CANTON   FAIR      37  36  96 CALM      30.13R FOG
WOOSTER        FAIR      35  33  92 CALM      30.14R FOG
MANSFIELD      FAIR      37  37 100 CALM      30.12S
YOUNGSTOWN     FAIR      37  34  89 NE3       30.12F
$$

OHZ042-051>053-060>062-070>072-077>081-300800-
  SOUTHWEST OHIO

CITY           SKY/WX    TMP DP  RH WIND       PRES   REMARKS
CINC-COVINGTON CLOUDY    54  48  80 E16       30.03R
CINC-LUNKEN    CLOUDY    54  48  80 E8        30.05S
HAMILTON       CLOUDY    53  46  77 E10       30.05F
DAYTON         CLOUDY    49  43  80 E8        30.07F
WRIGHT-PAT AFB CLOUDY    50  44  81 E9        30.06F
DAYTON GENERAL FAIR      50  42  74 E14       30.03F
WILMINGTON     CLOUDY    49  44  83 NE14G21   30.04F
$$

OHZ036-037-039>041-045>050-054>059-063>069-073>076-082>088-300800-
  CENTRAL AND SOUTHEAST OHIO

CITY           SKY/WX    TMP DP  RH WIND       PRES   REMARKS
COLUMBUS       CLOUDY    45  41  86 NE7       30.09F
OSU AIRPORT    FAIR      46  41  82 NE6       30.09F
BOLTON FIELD   FAIR      47  42  80 NE3       30.09F
RICKENBACK AFB FAIR      47  42  81 NE8       30.08F
NEWARK         CLOUDY    46  40  79 NE5       30.11F
MARION         FAIR      41  39  93 CALM      30.12F FOG
LANCASTER      FAIR      48  42  80 NE7       30.10F
ZANESVILLE     CLOUDY    48  42  80 CALM      30.13R
NEW PHILLY     CLOUDY    45  40  82 N3        30.14S
$$



USA.gov is the U.S. government's official web portal to all federal, state and local government web resources and services.